Satellite-Ground Cal/Val Region Overpasses Predictions

Prediction of Satellite NPP Overpassing Cal/Val Region: PacNW

Region Location: (Latitude: 10.00, Longitude: 139.50) to (Latitude: 22.70, Longitude: 165.60).

Table of predicted overpasses for the next 14.0 days since TLE Epoch: 12/29/2012
Interval Starting Time Starting Location Ending Time Ending Location
1 12/29/2012 15:40:48 ( 22.69, 149.25) 12/29/2012 15:44:24 ( 10.01, 146.23)
2 12/30/2012 02:49:53 ( 10.00, 156.77) 12/30/2012 02:53:29 ( 22.68, 153.75)
3 12/30/2012 15:21:47 ( 22.65, 154.00) 12/30/2012 15:25:22 ( 10.03, 150.99)
4 12/31/2012 02:30:52 ( 10.04, 161.52) 12/31/2012 02:34:27 ( 22.66, 158.52)
5 12/31/2012 15:02:44 ( 22.67, 158.76) 12/31/2012 15:06:19 ( 10.05, 155.76)
6 01/01/2013 02:12:40 ( 13.02, 165.59) 01/01/2013 02:15:24 ( 22.64, 163.28)
7 01/01/2013 03:53:19 ( 10.03, 140.91) 01/01/2013 03:55:02 ( 16.08, 139.50)
8 01/01/2013 14:43:42 ( 22.69, 163.53) 01/01/2013 14:47:18 ( 10.01, 160.51)
9 01/02/2013 03:34:17 ( 10.01, 145.67) 01/02/2013 03:37:53 ( 22.69, 142.65)
10 01/02/2013 14:27:52 ( 11.44, 165.60) 01/02/2013 14:28:16 ( 10.02, 165.27)
11 01/02/2013 16:06:10 ( 22.70, 142.91) 01/02/2013 16:09:46 ( 10.02, 139.90)
12 01/03/2013 03:15:15 ( 10.05, 150.42) 01/03/2013 03:18:50 ( 22.67, 147.42)
13 01/03/2013 15:47:08 ( 22.66, 147.66) 01/03/2013 15:50:43 ( 10.04, 144.66)
14 01/04/2013 02:56:13 ( 10.03, 155.19) 01/04/2013 02:59:48 ( 22.65, 152.18)
15 01/04/2013 15:28:06 ( 22.68, 152.43) 01/04/2013 15:31:42 ( 10.00, 149.41)
16 01/05/2013 02:37:10 ( 10.01, 159.95) 01/05/2013 02:40:46 ( 22.69, 156.93)
17 01/05/2013 15:09:04 ( 22.64, 157.18) 01/05/2013 15:12:39 ( 10.02, 154.18)
18 01/06/2013 02:18:09 ( 10.04, 164.70) 01/06/2013 02:21:44 ( 22.66, 161.70)
19 01/06/2013 14:50:02 ( 22.67, 161.94) 01/06/2013 14:53:37 ( 10.04, 158.94)
20 01/07/2013 03:40:36 ( 10.03, 144.09) 01/07/2013 03:44:11 ( 22.65, 141.09)
21 01/07/2013 14:32:17 ( 18.11, 165.59) 01/07/2013 14:34:35 ( 10.01, 163.69)
22 01/07/2013 16:12:29 ( 22.68, 141.33) 01/07/2013 16:14:37 ( 15.17, 139.51)
23 01/08/2013 03:21:34 ( 10.00, 148.86) 01/08/2013 03:25:10 ( 22.68, 145.84)
24 01/08/2013 15:53:28 ( 22.65, 146.08) 01/08/2013 15:57:03 ( 10.03, 143.08)
25 01/09/2013 03:02:33 ( 10.04, 153.61) 01/09/2013 03:06:08 ( 22.66, 150.60)
26 01/09/2013 15:34:25 ( 22.67, 150.85) 01/09/2013 15:38:00 ( 10.05, 147.85)
27 01/10/2013 02:43:30 ( 10.01, 158.37) 01/10/2013 02:47:06 ( 22.69, 155.35)
28 01/10/2013 15:15:23 ( 22.70, 155.61) 01/10/2013 15:18:59 ( 10.02, 152.60)
29 01/11/2013 02:24:29 ( 10.05, 163.12) 01/11/2013 02:28:04 ( 22.67, 160.12)
30 01/11/2013 14:56:21 ( 22.66, 160.37) 01/11/2013 14:59:56 ( 10.04, 157.36)
31 01/12/2013 02:08:12 ( 19.77, 165.60) 01/12/2013 02:09:01 ( 22.64, 164.89)


NCC Satellite Cal/Val Overpasses Prediction Service
